Time,TemperatureF,DewpointF,PressureIn,WindDirection,WindDirectionDegrees,WindSpeedMPH,WindSpeedGustMPH,Humidity,HourlyPrecipIn,Conditions,Clouds,dailyrainin,SolarRadiationWatts/m^2,SoftwareType,DateUTC
2013-02-25 00:01:00,27.0,18.0,-100.00,South,188,3.0,9.0,68,0.00,,,0.01,0.000000,,2013-02-25 07:01:00,
2013-02-25 00:11:00,27.0,18.0,-100.00,South,188,3.0,9.0,68,0.00,,,0.01,0.000000,,2013-02-25 07:11:00,
2013-02-25 00:21:00,27.0,18.0,-100.00,South,188,3.0,9.0,68,0.00,,,0.01,0.000000,,2013-02-25 07:21:00,
2013-02-25 00:52:00,27.0,17.0,-100.00,SSW,206,6.0,8.0,66,0.00,,,0.01,0.000000,,2013-02-25 07:52:00,
2013-02-25 01:01:00,27.0,17.0,-100.00,SSW,206,6.0,8.0,66,0.00,,,0.01,0.000000,,2013-02-25 08:01:00,
2013-02-25 01:11:00,27.0,17.0,-100.00,SSW,206,6.0,8.0,66,0.00,,,0.01,0.000000,,2013-02-25 08:11:00,
2013-02-25 01:21:00,27.0,17.0,-100.00,SSW,206,6.0,8.0,66,0.00,,,0.01,0.000000,,2013-02-25 08:21:00,
2013-02-25 01:42:00,29.0,20.0,-100.00,SSW,205,7.0,12.0,68,0.00,,,0.01,0.000000,,2013-02-25 08:42:00,
2013-02-25 01:52:00,29.0,20.0,-100.00,SSW,205,7.0,12.0,68,0.00,,,0.01,0.000000,,2013-02-25 08:52:00,
2013-02-25 02:01:00,29.0,20.0,-100.00,SSW,205,7.0,12.0,68,0.00,,,0.01,0.000000,,2013-02-25 09:01:00,
2013-02-25 02:12:00,29.0,20.0,-100.00,SSW,205,7.0,12.0,68,0.00,,,0.01,0.000000,,2013-02-25 09:12:00,
2013-02-25 02:21:00,29.0,20.0,-100.00,SSW,205,7.0,12.0,68,0.00,,,0.01,0.000000,,2013-02-25 09:21:00,
2013-02-25 02:52:00,28.0,20.0,-100.00,SSW,212,7.0,13.0,70,0.00,,,0.01,0.000000,,2013-02-25 09:52:00,
2013-02-25 03:01:00,28.0,20.0,-100.00,SSW,212,7.0,13.0,70,0.00,,,0.01,0.000000,,2013-02-25 10:01:00,
2013-02-25 03:11:00,28.0,20.0,-100.00,SSW,212,7.0,13.0,70,0.00,,,0.01,0.000000,,2013-02-25 10:11:00,
2013-02-25 03:21:00,28.0,20.0,-100.00,SSW,212,7.0,13.0,70,0.00,,,0.01,0.000000,,2013-02-25 10:21:00,
2013-02-25 03:52:00,28.0,20.0,-100.00,SSW,212,6.0,13.0,72,0.00,,,-99.99,0.000000,,2013-02-25 10:52:00,
2013-02-25 04:01:00,28.0,20.0,-100.00,SSW,212,6.0,13.0,72,0.00,,,-99.99,0.000000,,2013-02-25 11:01:00,
2013-02-25 04:11:00,28.0,20.0,-100.00,SSW,212,6.0,13.0,72,0.00,,,-99.99,0.000000,,2013-02-25 11:11:00,
2013-02-25 04:21:00,28.0,20.0,-100.00,SSW,212,6.0,13.0,72,0.00,,,-99.99,0.000000,,2013-02-25 11:21:00,
2013-02-25 04:52:00,27.0,18.0,-100.00,SW,218,6.0,13.0,69,0.00,,,0.01,0.000000,,2013-02-25 11:52:00,
2013-02-25 05:02:00,27.0,18.0,-100.00,SW,218,6.0,13.0,69,0.00,,,0.01,0.000000,,2013-02-25 12:02:00,
2013-02-25 05:11:00,27.0,18.0,-100.00,SW,218,6.0,13.0,69,0.00,,,0.01,0.000000,,2013-02-25 12:11:00,
2013-02-25 05:21:00,27.0,18.0,-100.00,SW,218,6.0,13.0,69,0.00,,,0.01,0.000000,,2013-02-25 12:21:00,
2013-02-25 05:55:00,27.0,19.0,-100.00,SW,216,6.0,13.0,70,0.00,,,0.01,0.000000,,2013-02-25 12:55:00,
2013-02-25 06:02:00,27.0,19.0,-100.00,SW,216,6.0,13.0,70,0.00,,,0.01,0.000000,,2013-02-25 13:02:00,
2013-02-25 06:12:00,27.0,19.0,-100.00,SW,216,6.0,13.0,70,0.00,,,0.01,0.000000,,2013-02-25 13:12:00,
2013-02-25 06:22:00,27.0,19.0,-100.00,SW,216,6.0,13.0,70,0.00,,,0.01,0.000000,,2013-02-25 13:22:00,
2013-02-25 06:52:00,26.0,18.0,-100.00,SSW,213,4.0,13.0,70,0.00,,,0.01,0.000000,,2013-02-25 13:52:00,
2013-02-25 07:03:00,26.0,18.0,-100.00,SSW,213,4.0,13.0,70,0.00,,,0.01,0.000000,,2013-02-25 14:03:00,
2013-02-25 07:17:00,26.0,18.0,-100.00,SSW,213,4.0,13.0,70,0.00,,,0.01,0.000000,,2013-02-25 14:17:00,
2013-02-25 07:52:00,26.0,16.0,-100.00,SSW,195,3.0,12.0,64,0.00,,,0.01,0.000000,,2013-02-25 14:52:00,
2013-02-25 08:02:00,26.0,16.0,-100.00,SSW,195,3.0,12.0,64,0.00,,,0.01,0.000000,,2013-02-25 15:02:00,
2013-02-25 08:11:00,26.0,16.0,-100.00,SSW,195,3.0,12.0,64,0.00,,,0.01,0.000000,,2013-02-25 15:11:00,
2013-02-25 08:21:00,26.0,16.0,-100.00,SSW,195,3.0,12.0,64,0.00,,,0.01,0.000000,,2013-02-25 15:21:00,
2013-02-25 08:42:00,29.0,14.0,-100.00,SW,218,5.0,8.0,53,0.00,,,0.01,33.000000,,2013-02-25 15:42:00,
2013-02-25 08:52:00,29.0,14.0,-100.00,SW,218,5.0,8.0,53,0.00,,,0.01,33.000000,,2013-02-25 15:52:00,
2013-02-25 09:02:00,29.0,14.0,-100.00,SW,218,5.0,8.0,53,0.00,,,0.01,33.000000,,2013-02-25 16:02:00,
2013-02-25 09:11:00,29.0,14.0,-100.00,SW,218,5.0,8.0,53,0.00,,,0.01,33.000000,,2013-02-25 16:11:00,
2013-02-25 09:21:00,29.0,14.0,-100.00,SW,218,5.0,8.0,53,0.00,,,0.01,33.000000,,2013-02-25 16:21:00,
2013-02-25 09:42:00,32.0,14.0,-100.00,SW,233,8.0,12.0,46,0.00,,,0.01,166.000000,,2013-02-25 16:42:00,
2013-02-25 09:52:00,32.0,14.0,-100.00,SW,233,8.0,12.0,46,0.00,,,0.01,166.000000,,2013-02-25 16:52:00,
2013-02-25 10:01:00,32.0,14.0,-100.00,SW,233,8.0,12.0,46,0.00,,,0.01,166.000000,,2013-02-25 17:01:00,
2013-02-25 10:11:00,32.0,14.0,-100.00,SW,233,8.0,12.0,46,0.00,,,0.01,166.000000,,2013-02-25 17:11:00,
2013-02-25 10:21:00,32.0,14.0,-100.00,SW,233,8.0,12.0,46,0.00,,,0.01,166.000000,,2013-02-25 17:21:00,
2013-02-25 10:42:00,38.0,13.0,-100.00,SW,233,9.0,16.0,35,0.00,,,0.01,301.000000,,2013-02-25 17:42:00,
2013-02-25 10:52:00,38.0,13.0,-100.00,SW,233,9.0,16.0,35,0.00,,,0.01,301.000000,,2013-02-25 17:52:00,
2013-02-25 11:01:00,38.0,13.0,-100.00,SW,233,9.0,16.0,35,0.00,,,0.01,301.000000,,2013-02-25 18:01:00,
2013-02-25 11:12:00,38.0,13.0,-100.00,SW,233,9.0,16.0,35,0.00,,,0.01,301.000000,,2013-02-25 18:12:00,
2013-02-25 11:21:00,38.0,13.0,-100.00,SW,233,9.0,16.0,35,0.00,,,0.01,301.000000,,2013-02-25 18:21:00,
2013-02-25 11:52:00,42.0,12.0,-100.00,WSW,245,6.0,18.0,29,0.00,,,0.01,488.000000,,2013-02-25 18:52:00,
2013-02-25 12:01:00,42.0,12.0,-100.00,WSW,245,6.0,18.0,29,0.00,,,0.01,488.000000,,2013-02-25 19:01:00,
2013-02-25 12:11:00,42.0,12.0,-100.00,WSW,245,6.0,18.0,29,0.00,,,0.01,488.000000,,2013-02-25 19:11:00,
2013-02-25 12:21:00,42.0,12.0,-100.00,WSW,245,6.0,18.0,29,0.00,,,0.01,488.000000,,2013-02-25 19:21:00,
2013-02-25 12:52:00,46.0,13.0,-100.00,SW,236,8.0,14.0,26,0.00,,,0.01,637.000000,,2013-02-25 19:52:00,
2013-02-25 13:01:00,46.0,13.0,-100.00,SW,236,8.0,14.0,26,0.00,,,0.01,637.000000,,2013-02-25 20:01:00,
2013-02-25 13:11:00,46.0,13.0,-100.00,SW,236,8.0,14.0,26,0.00,,,0.01,637.000000,,2013-02-25 20:11:00,
2013-02-25 13:21:00,46.0,13.0,-100.00,SW,236,8.0,14.0,26,0.00,,,0.01,637.000000,,2013-02-25 20:21:00,
2013-02-25 13:52:00,49.0,16.0,-100.00,SW,227,8.0,13.0,26,0.00,,,0.00,672.000000,,2013-02-25 20:52:00,
2013-02-25 14:01:00,49.0,16.0,-100.00,SW,227,8.0,13.0,26,0.00,,,0.00,672.000000,,2013-02-25 21:01:00,
2013-02-25 14:11:00,49.0,16.0,-100.00,SW,227,8.0,13.0,26,0.00,,,0.00,672.000000,,2013-02-25 21:11:00,
2013-02-25 14:21:00,49.0,16.0,-100.00,SW,227,8.0,13.0,26,0.00,,,0.00,672.000000,,2013-02-25 21:21:00,
2013-02-25 14:52:00,49.0,16.0,-100.00,SW,226,8.0,19.0,27,0.00,,,0.00,661.000000,,2013-02-25 21:52:00,
2013-02-25 15:01:00,49.0,16.0,-100.00,SW,226,8.0,19.0,27,0.00,,,0.00,661.000000,,2013-02-25 22:01:00,
2013-02-25 15:11:00,49.0,16.0,-100.00,SW,226,8.0,19.0,27,0.00,,,0.00,661.000000,,2013-02-25 22:11:00,
2013-02-25 15:21:00,49.0,16.0,-100.00,SW,226,8.0,19.0,27,0.00,,,0.00,661.000000,,2013-02-25 22:21:00,
2013-02-25 15:52:00,48.0,15.0,-100.00,WSW,238,6.0,17.0,26,0.00,,,0.00,553.000000,,2013-02-25 22:52:00,
2013-02-25 16:01:00,48.0,15.0,-100.00,WSW,238,6.0,17.0,26,0.00,,,0.00,553.000000,,2013-02-25 23:01:00,
2013-02-25 16:11:00,48.0,15.0,-100.00,WSW,238,6.0,17.0,26,0.00,,,0.00,553.000000,,2013-02-25 23:11:00,
2013-02-25 16:22:00,48.0,15.0,-100.00,WSW,238,6.0,17.0,26,0.00,,,0.00,553.000000,,2013-02-25 23:22:00,
2013-02-25 16:52:00,50.0,20.0,-100.00,WSW,252,3.0,16.0,30,0.00,,,0.00,426.000000,,2013-02-25 23:52:00,
2013-02-25 17:01:00,50.0,20.0,-100.00,WSW,252,3.0,16.0,30,0.00,,,0.00,426.000000,,2013-02-26 00:01:00,
2013-02-25 17:12:00,50.0,20.0,-100.00,WSW,252,3.0,16.0,30,0.00,,,0.00,426.000000,,2013-02-26 00:12:00,
2013-02-25 17:22:00,50.0,20.0,-100.00,WSW,252,3.0,16.0,30,0.00,,,0.00,426.000000,,2013-02-26 00:22:00,
2013-02-25 17:42:00,47.0,23.0,-100.00,WNW,295,3.0,13.0,38,0.00,,,0.00,206.000000,,2013-02-26 00:42:00,
2013-02-25 17:52:00,47.0,23.0,-100.00,WNW,295,3.0,13.0,38,0.00,,,0.00,206.000000,,2013-02-26 00:52:00,
2013-02-25 18:02:00,47.0,23.0,-100.00,WNW,295,3.0,13.0,38,0.00,,,0.00,206.000000,,2013-02-26 01:02:00,
2013-02-25 18:11:00,47.0,23.0,-100.00,WNW,295,3.0,13.0,38,0.00,,,0.00,206.000000,,2013-02-26 01:11:00,
2013-02-25 18:21:00,47.0,23.0,-100.00,WNW,295,3.0,13.0,38,0.00,,,0.00,206.000000,,2013-02-26 01:21:00,
2013-02-25 18:42:00,41.0,21.0,-100.00,SW,235,1.0,6.0,45,0.00,,,0.00,60.000000,,2013-02-26 01:42:00,
2013-02-25 18:52:00,41.0,21.0,-100.00,SW,235,1.0,6.0,45,0.00,,,0.00,60.000000,,2013-02-26 01:52:00,
2013-02-25 19:01:00,41.0,21.0,-100.00,SW,235,1.0,6.0,45,0.00,,,0.00,60.000000,,2013-02-26 02:01:00,
2013-02-25 19:11:00,41.0,21.0,-100.00,SW,235,1.0,6.0,45,0.00,,,0.00,60.000000,,2013-02-26 02:11:00,
2013-02-25 19:21:00,41.0,21.0,-100.00,SW,235,1.0,6.0,45,0.00,,,0.00,60.000000,,2013-02-26 02:21:00,
2013-02-25 19:42:00,34.0,15.0,-100.00,SSW,213,2.0,4.0,46,0.00,,,0.00,1.000000,,2013-02-26 02:42:00,
2013-02-25 19:52:00,34.0,15.0,-100.00,SSW,213,2.0,4.0,46,0.00,,,0.00,1.000000,,2013-02-26 02:52:00,
2013-02-25 20:02:00,34.0,15.0,-100.00,SSW,213,2.0,4.0,46,0.00,,,0.00,1.000000,,2013-02-26 03:02:00,
2013-02-25 20:11:00,34.0,15.0,-100.00,SSW,213,2.0,4.0,46,0.00,,,0.00,1.000000,,2013-02-26 03:11:00,
2013-02-25 20:21:00,34.0,15.0,-100.00,SSW,213,2.0,4.0,46,0.00,,,0.00,1.000000,,2013-02-26 03:21:00,
2013-02-25 20:52:00,34.0,19.0,-100.00,SW,225,3.0,3.0,53,0.00,,,0.00,0.000000,,2013-02-26 03:52:00,
2013-02-25 21:01:00,34.0,19.0,-100.00,SW,225,3.0,3.0,53,0.00,,,0.00,0.000000,,2013-02-26 04:01:00,
2013-02-25 21:11:00,34.0,19.0,-100.00,SW,225,3.0,3.0,53,0.00,,,0.00,0.000000,,2013-02-26 04:11:00,
2013-02-25 21:21:00,34.0,19.0,-100.00,SW,225,3.0,3.0,53,0.00,,,0.00,0.000000,,2013-02-26 04:21:00,
2013-02-25 21:52:00,32.0,21.0,-100.00,SSW,202,2.0,5.0,64,0.00,,,0.00,0.000000,,2013-02-26 04:52:00,
2013-02-25 22:01:00,32.0,21.0,-100.00,SSW,202,2.0,5.0,64,0.00,,,0.00,0.000000,,2013-02-26 05:01:00,
2013-02-25 22:12:00,32.0,21.0,-100.00,SSW,202,2.0,5.0,64,0.00,,,0.00,0.000000,,2013-02-26 05:12:00,
2013-02-25 22:22:00,32.0,21.0,-100.00,SSW,202,2.0,5.0,64,0.00,,,0.00,0.000000,,2013-02-26 05:22:00,
2013-02-25 22:43:00,31.0,21.0,-100.00,WSW,250,1.0,6.0,65,0.00,,,0.00,0.000000,,2013-02-26 05:43:00,
2013-02-25 22:52:00,31.0,21.0,-100.00,WSW,250,1.0,6.0,65,0.00,,,0.00,0.000000,,2013-02-26 05:52:00,
2013-02-25 23:02:00,31.0,21.0,-100.00,WSW,250,1.0,6.0,65,0.00,,,0.00,0.000000,,2013-02-26 06:02:00,
2013-02-25 23:11:00,31.0,21.0,-100.00,WSW,250,1.0,6.0,65,0.00,,,0.00,0.000000,,2013-02-26 06:11:00,
2013-02-25 23:21:00,31.0,21.0,-100.00,WSW,250,1.0,6.0,65,0.00,,,0.00,0.000000,,2013-02-26 06:21:00,
2013-02-25 23:52:00,31.0,20.0,-100.00,SSW,202,2.0,4.0,64,0.00,,,0.00,0.000000,,2013-02-26 06:52:00,